Boscobel, WI

3:39 PM CST on February 08, 2016 (GMT -0600)
Boscobel

Weather History for KOVS - October, 2012

Change the Weather History Date:

Sunday, October 21, 2012

  Actual Average (KPDC) Record (KPDC)
Temperature  
Mean Temperature 54 °F -  
Max Temperature 72 °F 60 °F 85 °F (2011)
Min Temperature 37 °F 39 °F 20 °F (1952)
Degree Days  
Heating Degree Days 11    
Growing Degree Days 4 (Base 50)    
Moisture  
Dew Point 43 °F    
Average Humidity 78    
Maximum Humidity 100    
Minimum Humidity 42    
Precipitation  
Precipitation 0.00 in - - ()
Sea Level Pressure  
Sea Level Pressure 29.93 in    
Wind  
Wind Speed 2 mph (SE)    
Max Wind Speed 9 mph    
Max Gust Speed -    
Visibility 9 miles    
Events Rain    
Averages and records for this station are not official NWS values.
T = Trace of Precipitation, MM = Missing Value Source: NWS Daily Summary

Daily Weather History Graph

Daily Weather History Graph

Search for Another Location

Airport or City:

Trip Planner

Search our weather history database for the weather conditions in past years. The results will help you decide how hot, cold, wet, or windy it might be!

Date:

Astronomy

Oct. 21, 2012 Rise Set
Actual Time 7:24 AM CDT 6:09 PM CDT
Civil Twilight 6:55 AM CDT 6:38 PM CDT
Nautical Twilight 6:22 AM CDT 7:11 PM CDT
Astronomical Twilight 5:49 AM CDT 7:44 PM CDT
Moon 1:48 PM CDT (10/21) No Moon Set
Length of Visible Light 11h 43m
Length of Day
10h 45m
Waxing Crescent, 45% of the Moon is Illuminated
Oct 21
Waxing Crescent
Oct 21
First Quarter
Oct 29
Full
Nov 6
Last Quarter
Nov 13
New

Hourly Weather History & Observations

Time (CDT) Temp. Windchill Dew Point Humidity Pressure Visibility Wind Dir Wind Speed Gust Speed Precip Events Conditions
12:53 AM 37.0 °F - 37.0 °F 100% 29.93 in 9.0 mi Calm Calm - N/A   Clear
1:53 AM 37.0 °F - 37.0 °F 100% 29.94 in 10.0 mi Calm Calm - N/A   Clear
2:53 AM 39.0 °F - 37.9 °F 96% 29.94 in 8.0 mi Calm Calm - N/A   Clear
3:53 AM 39.0 °F - 39.0 °F 100% 29.93 in 10.0 mi Calm Calm - N/A   Clear
4:53 AM 39.0 °F - 37.9 °F 96% 29.95 in 10.0 mi Calm Calm - N/A   Clear
5:53 AM 37.0 °F - 37.0 °F 100% 29.96 in 6.0 mi Calm Calm - N/A   Clear
6:53 AM 37.0 °F 34.5 °F 36.0 °F 96% 29.95 in 4.0 mi NE 3.5 mph - N/A   Clear
7:53 AM 37.0 °F - 36.0 °F 96% 29.98 in 4.0 mi Calm Calm - N/A   Clear
8:15 AM 37.4 °F - 37.4 °F 100% 29.96 in 4.0 mi Calm Calm - N/A   Partly Cloudy
8:53 AM 42.1 °F 40.2 °F 39.9 °F 92% 29.99 in 8.0 mi NE 3.5 mph - N/A   Partly Cloudy
9:53 AM 50.0 °F - 43.0 °F 77% 29.98 in 10.0 mi North 3.5 mph - N/A   Clear
10:53 AM 57.9 °F - 46.0 °F 65% 29.97 in 10.0 mi Variable 3.5 mph - N/A   Clear
11:53 AM 63.0 °F - 46.9 °F 56% 29.94 in 10.0 mi ESE 8.1 mph - N/A   Clear
12:53 PM 64.9 °F - 46.9 °F 52% 29.92 in 10.0 mi South 6.9 mph - N/A   Clear
1:53 PM 69.1 °F - 48.0 °F 47% 29.91 in 10.0 mi Variable 4.6 mph - N/A   Clear
2:53 PM 70.0 °F - 48.0 °F 46% 29.88 in 10.0 mi South 9.2 mph - 0.00 in Rain Light Rain
3:53 PM 71.1 °F - 46.9 °F 42% 29.88 in 10.0 mi South 8.1 mph - 0.00 in   Clear
4:53 PM 71.1 °F - 48.0 °F 44% 29.88 in 10.0 mi Calm Calm - 0.00 in   Clear
5:53 PM 68.0 °F - 46.9 °F 47% 29.88 in 10.0 mi South 4.6 mph - N/A   Clear
6:53 PM 60.1 °F - 46.9 °F 62% 29.90 in 10.0 mi Calm Calm - N/A   Clear
7:53 PM 54.0 °F - 48.0 °F 80% 29.91 in 10.0 mi Calm Calm - N/A   Clear
8:53 PM 52.0 °F - 48.0 °F 86% 29.92 in 9.0 mi Calm Calm - N/A   Clear
9:53 PM 52.0 °F - 48.0 °F 86% 29.93 in 7.0 mi Calm Calm - N/A   Clear
10:53 PM 50.0 °F - 48.0 °F 93% 29.93 in 9.0 mi Calm Calm - N/A   Clear
11:53 PM 50.0 °F - 48.0 °F 93% 29.94 in 10.0 mi Calm Calm - N/A   Clear